Llagostera





Hora UTC 20:15
Temperatura 19.4 ºC
Humitat 77.0 %
Pressió 1019.3 hPa
Pluja 0.2 mm
Velocitat vent 0.0 km/h
Direcció vent

Dades diàries 2022-08-19



Hora UTC (hivern +1h; estiu +2h)
Temperatura (ºC) Humitat (%) Pressió (hPa) Velocitat vent (km/h) Precipitació (mm)
Hora UTC Aire Humitat Pressió Vel. Dir. Vel. Max Dir. Intent. màx 5 min.
00:05 13.1 95.0 1017.0 0.0 0.0 0.0
00:15 13.1 95.0 1017.0 3.2 6.4 0.0
00:25 12.9 95.0 1016.8 3.2 6.4 0.0
00:35 12.9 96.0 1016.9 1.6 6.4 0.0
00:45 12.9 95.0 1016.8 0.0 6.4 0.0
00:55 12.8 95.0 1016.8 0.0 6.4 0.0
01:05 12.9 96.0 1016.7 4.8 8.0 0.0
01:15 13.1 96.0 1016.9 4.8 12.9 0.0
01:25 13.3 96.0 1017.0 3.2 12.9 0.0
01:35 13.4 96.0 1016.9 1.6 12.9 0.0
01:45 13.3 96.0 1017.0 0.0 12.9 0.0
01:55 13.2 96.0 1017.0 0.0 12.9 0.0
02:05 12.6 95.0 1017.1 1.6 12.9 0.0
02:15 12.4 96.0 1017.1 3.2 12.9 0.0
02:25 12.7 96.0 1016.7 4.8 12.9 0.0
02:35 12.5 96.0 1017.1 1.6 12.9 0.0
02:45 12.6 96.0 1017.0 0.0 12.9 0.0
02:55 12.3 96.0 1017.1 0.0 12.9 0.0
03:05 12.2 96.0 1017.1 1.6 12.9 0.0
03:15 12.2 96.0 1017.2 0.0 12.9 0.0
03:25 11.7 96.0 1017.2 1.6 12.9 0.0
03:35 11.8 96.0 1017.2 1.6 12.9 0.0
03:45 11.8 96.0 1017.2 3.2 12.9 0.0
03:55 11.7 96.0 1017.2 1.6 12.9 0.0
04:05 11.8 96.0 1017.4 0.0 12.9 0.0
04:15 12.1 97.0 1017.4 0.0 12.9 0.0
04:25 12.0 96.0 1017.3 0.0 12.9 0.0
04:35 11.8 96.0 1017.5 0.0 12.9 0.0
04:45 11.9 96.0 1017.5 0.0 12.9 0.0
04:55 11.9 97.0 1017.5 0.0 12.9 0.0
05:05 11.8 96.0 1017.6 0.0 12.9 0.0
05:15 11.5 96.0 1017.9 0.0 12.9 0.0
05:25 11.4 96.0 1018.1 0.0 12.9 0.0
05:35 11.4 96.0 1018.1 0.0 12.9 0.0
05:45 11.6 97.0 1018.2 0.0 12.9 0.0
05:55 12.0 97.0 1018.3 0.0 12.9 0.0
06:05 12.6 97.0 1018.4 0.0 12.9 0.0
06:15 13.3 98.0 1018.3 0.0 12.9 0.0
06:25 14.2 98.0 1018.2 0.0 12.9 0.0
06:35 14.9 98.0 1018.4 0.0 12.9 0.0
06:45 15.8 98.0 1018.4 1.6 12.9 0.0
06:55 16.4 97.0 1018.6 0.0 12.9 0.0
07:05 16.6 96.0 1018.5 0.0 12.9 0.0
07:15 16.9 94.0 1018.6 0.0 12.9 0.0
07:25 17.3 91.0 1018.6 3.2 12.9 0.0
07:45 18.6 87.0 1018.9 4.8 12.9 0.0
07:55 19.2 85.0 1018.8 1.6 12.9 0.0
08:05 19.7 84.0 1018.8 3.2 12.9 0.0
08:15 20.2 84.0 1018.7 4.8 12.9 0.0
08:25 20.7 81.0 1018.8 3.2 12.9 0.0
08:45 22.1 75.0 1018.8 6.4 12.9 0.0
08:55 22.6 72.0 1018.8 4.8 12.9 0.0
09:05 22.9 70.0 1018.7 1.6 12.9 0.0
09:15 23.7 60.0 1018.8 3.2 12.9 0.2
09:25 24.2 59.0 1018.7 3.2 12.9 0.0
09:35 24.8 56.0 1018.9 3.2 12.9 0.0
09:45 24.9 53.0 1018.9 3.2 12.9 0.0
09:55 25.4 52.0 1018.9 4.8 12.9 0.0
10:05 25.8 52.0 1018.8 3.2 12.9 0.0
10:15 26.2 50.0 1018.7 1.6 12.9 0.0
10:25 26.9 50.0 1018.6 4.8 12.9 0.0
10:35 27.4 48.0 1018.6 4.8 12.9 0.0
10:45 27.2 46.0 1018.5 3.2 12.9 0.0
10:55 27.4 46.0 1018.5 4.8 14.5 0.0
11:05 27.7 46.0 1018.5 9.7 16.1 0.0
11:15 27.7 45.0 1018.5 6.4 16.1 0.0
11:25 27.9 44.0 1018.5 3.2 16.1 0.0
11:35 28.7 41.0 1018.4 4.8 16.1 0.0
11:45 28.8 41.0 1018.3 6.4 16.1 0.0
11:55 28.8 40.0 1018.2 6.4 16.1 0.0
12:05 29.1 37.0 1018.2 4.8 16.1 0.0
12:15 29.8 40.0 1018.2 4.8 16.1 0.0
12:25 29.4 42.0 1018.1 8.0 16.1 0.0
12:35 29.2 43.0 1018.1 8.0 16.1 0.0
12:45 29.8 41.0 1017.8 9.7 19.3 0.0
12:55 29.8 44.0 1017.9 8.0 19.3 0.0
13:05 29.7 44.0 1017.9 11.3 22.5 0.0
13:15 29.6 45.0 1017.9 12.9 22.5 0.0
13:25 29.0 46.0 1017.7 9.7 25.7 0.0
13:35 29.0 47.0 1017.9 12.9 25.7 0.0
13:45 28.8 47.0 1017.9 16.1 32.2 0.0
13:55 28.4 48.0 1017.9 14.5 32.2 0.0
14:05 28.2 48.0 1018.0 14.5 32.2 0.0
14:15 28.2 45.0 1017.9 12.9 32.2 0.0
14:25 28.5 48.0 1018.0 12.9 32.2 0.0
14:35 28.4 48.0 1018.1 12.9 32.2 0.0
14:45 28.0 49.0 1018.1 14.5 32.2 0.0
14:55 27.7 51.0 1018.1 14.5 32.2 0.0
15:05 27.3 52.0 1018.1 12.9 32.2 0.0
15:15 27.3 52.0 1018.6 14.5 32.2 0.0
15:25 27.1 54.0 1018.1 11.3 32.2 0.0
15:35 26.8 54.0 1018.1 12.9 32.2 0.0
15:45 26.8 54.0 1018.0 12.9 32.2 0.0
15:55 26.7 55.0 1018.0 11.3 32.2 0.0
16:05 26.7 54.0 1018.0 9.7 32.2 0.0
16:15 26.7 54.0 1017.9 9.7 32.2 0.0
16:25 26.6 54.0 1018.0 11.3 32.2 0.0
16:35 26.6 56.0 1018.0 11.3 32.2 0.0
16:45 26.2 56.0 1018.1 11.3 32.2 0.0
16:55 25.9 58.0 1018.1 11.3 32.2 0.0
17:05 25.7 59.0 1018.0 9.7 32.2 0.0
17:15 25.7 59.0 1018.0 6.4 32.2 0.0
17:25 25.7 60.0 1017.9 6.4 32.2 0.0
17:35 25.4 60.0 1017.9 4.8 32.2 0.0
17:45 25.1 61.0 1017.8 4.8 32.2 0.0
17:55 24.7 63.0 1017.8 6.4 32.2 0.0
18:05 24.4 64.0 1017.9 3.2 32.2 0.0
18:15 24.1 65.0 1018.1 3.2 32.2 0.0
18:25 23.7 66.0 1018.2 3.2 32.2 0.0
18:35 23.3 67.0 1018.4 6.4 32.2 0.0
18:45 23.0 68.0 1018.5 4.8 32.2 0.0
19:05 22.4 70.0 1018.8 1.6 32.2 0.0
19:25 21.7 71.0 1018.8 0.0 32.2 0.0
19:35 21.2 73.0 1018.9 0.0 32.2 0.0
19:45 20.8 74.0 1019.0 0.0 32.2 0.0
19:55 20.4 75.0 1019.0 0.0 32.2 0.0
20:05 19.8 76.0 1019.3 0.0 32.2 0.0
20:15 19.4 77.0 1019.3 0.0 32.2 0.0
Màxima 29.8 98.0 1019.3 16.1 32.2 0.2
Mínima 11.4 37.0 1016.7
Total 0.2